Location: Krakow
(50.0212°N, 19.9423°E)
Time: 14:29:29
(UTC+02:00)

NOAA 18 - Pass Details

Date: 03 May 2024
Orbit: 837 x 859 km, 98.9° (Epoch: 21 May)

Event Time Altitude Azimuth Distance (km) Brightness Sun altitude
Exits shadow 23:29:12 26° 221° (SW) 1,623 6.4 -22.3°
Maximum altitude 23:31:25 36° 264° (W) 1,335 6.3 -22.4°
Drops below altitude 10° 23:36:29 10° 330° (NNW) 2,496 8.7 -22.6°
Sets 23:39:05 0° 339° (NNW) 3,433 9.8 -22.7°
